Location: Peterborough
(44.3091°N, 78.3197°W)
Time: 16:47:27
(UTC-04:00)

Transit 4A - Pass Details

Date: 24 March 2023
Orbit: 864 x 980 km, 66.8° (Epoch: 04 June)

Event Time Altitude Azimuth Distance (km) Brightness Sun altitude
Rises 14:05:52 0° 333° (NNW) 3,533 10.6 46.0°
Reaches altitude 10° 14:09:39 10° 356° (N) 2,615 10.0 45.8°
Maximum altitude 14:12:59 15° 30° (NNE) 2,299 9.7 45.6°
Drops below altitude 10° 14:16:22 10° 63° (ENE) 2,656 10.1 45.4°
Sets 14:20:14 0° 87° (E) 3,622 10.8 45.2°
